Weather History for Port Isabel, TX

Change the Weather History Date:

Friday, March 28, 2014

  Actual Average Record
Temperature  
Mean Temperature 82 °F -  
Max Temperature 95 °F - - ()
Min Temperature 70 °F - - ()
Cooling Degree Days 17    
Growing Degree Days 32 (Base 50)    
Moisture  
Dew Point 70 °F    
Average Humidity 82    
Maximum Humidity 94    
Minimum Humidity 34    
Precipitation  
Precipitation 0.00 in - - ()
Sea Level Pressure  
Sea Level Pressure 29.78 in    
Wind  
Wind Speed 11 mph (South)    
Max Wind Speed 18 mph    
Max Gust Speed 24 mph    
Visibility 5 miles    
Events      
T = Trace of Precipitation, MM = Missing Value Source: NWS Daily Summary

Daily Weather History Graph

Daily Weather History Graph

Search for Another Location

Airport:

Trip Planner

Search our weather history database for the weather conditions in past years. The results will help you decide how hot, cold, wet, or windy it might be!

Date:

Astronomy

Mar. 28, 2014 Rise Set
Actual Time 7:24 AM CDT 7:44 PM CDT
Civil Twilight 7:01 AM CDT 8:07 PM CDT
Nautical Twilight 6:34 AM CDT 8:34 PM CDT
Astronomical Twilight 6:07 AM CDT 9:01 PM CDT
Moon 5:43 AM CDT (3/28) 5:52 PM CDT (3/28)
Length of Visible Light 13h 06m
Length of Day
12h 19m
Waning Crescent, 6% of the Moon is Illuminated
Mar 28
Waning Crescent
Mar 30
New
Apr 7
First Quarter
Apr 15
Full
Apr 22
Last Quarter

Hourly Weather History & Observations

Time (CDT) Temp. Heat Index Dew Point Humidity Pressure Visibility Wind Dir Wind Speed Gust Speed Precip Events Conditions
12:48 AM 73.4 °F - 71.6 °F 94% 29.80 in 3.0 mi South 13.8 mph - N/A   Overcast
12:53 AM 73.9 °F - 72.0 °F 93% 29.80 in 3.0 mi South 12.7 mph - N/A   Overcast
1:23 AM 75.2 °F - 71.6 °F 89% 29.80 in 5.0 mi South 13.8 mph 20.7 mph N/A   Overcast
1:53 AM 75.0 °F - 72.0 °F 90% 29.78 in 5.0 mi South 12.7 mph - N/A   Overcast
2:53 AM 75.0 °F - 72.0 °F 90% 29.77 in 6.0 mi South 12.7 mph 21.9 mph N/A   Overcast
3:53 AM 73.9 °F - 71.1 °F 91% 29.75 in 5.0 mi South 9.2 mph - N/A   Overcast
4:53 AM 73.9 °F - 71.1 °F 91% 29.75 in 5.0 mi South 11.5 mph - N/A   Overcast
5:53 AM 73.0 °F - 71.1 °F 93% 29.75 in 5.0 mi South 8.1 mph - N/A   Overcast
6:53 AM 73.0 °F - 71.1 °F 93% 29.76 in 4.0 mi South 9.2 mph - N/A   Overcast
7:23 AM 73.4 °F - 71.6 °F 94% 29.76 in 4.0 mi South 10.4 mph - N/A   Overcast
7:40 AM 73.4 °F - 71.6 °F 94% 29.77 in 2.0 mi South 11.5 mph - N/A   Overcast
7:53 AM 73.0 °F - 71.1 °F 93% 29.76 in 1.8 mi South 12.7 mph - N/A   Overcast
8:01 AM 73.4 °F - 71.6 °F 94% 29.76 in 2.0 mi SSE 11.5 mph - N/A   Overcast
8:16 AM 73.4 °F - 71.6 °F 94% 29.78 in 3.0 mi SSW 8.1 mph - N/A   Overcast
8:29 AM 73.4 °F - 71.6 °F 94% 29.78 in 3.0 mi SSW 10.4 mph 18.4 mph N/A   Overcast
8:53 AM 73.9 °F - 71.1 °F 91% 29.79 in 3.0 mi South 9.2 mph - N/A   Overcast
9:01 AM 73.4 °F - 71.6 °F 94% 29.79 in 2.5 mi South 9.2 mph - N/A   Overcast
9:13 AM 73.4 °F - 71.6 °F 94% 29.79 in 3.0 mi South 9.2 mph - N/A   Overcast
9:53 AM 75.0 °F - 71.1 °F 87% 29.81 in 5.0 mi South 12.7 mph - N/A   Overcast
10:20 AM 77.0 °F - 71.6 °F 83% 29.80 in 5.0 mi South 13.8 mph 24.2 mph N/A   Haze
10:53 AM 77.0 °F - 70.0 °F 79% 29.81 in 5.0 mi South 17.3 mph - N/A   Haze
11:19 AM 78.8 °F - 71.6 °F 78% 29.80 in 5.0 mi South 16.1 mph 24.2 mph N/A   Haze
11:30 AM 80.6 °F 84.6 °F 71.6 °F 74% 29.80 in 6.0 mi South 15.0 mph 24.2 mph N/A   Haze
11:53 AM 82.0 °F 86.3 °F 71.1 °F 69% 29.80 in 6.0 mi SSW 18.4 mph 24.2 mph N/A   Haze
12:53 PM 82.0 °F 86.3 °F 71.1 °F 69% 29.80 in 7.0 mi SSW 15.0 mph - N/A   Partly Cloudy
1:53 PM 86.0 °F 93.0 °F 73.0 °F 65% 29.78 in 7.0 mi SW 11.5 mph - N/A   Clear
2:53 PM 88.0 °F 94.7 °F 72.0 °F 59% 29.76 in 8.0 mi WSW 9.2 mph - N/A   Clear
3:53 PM 90.0 °F 92.8 °F 66.9 °F 46% 29.73 in 8.0 mi Variable 5.8 mph - N/A   Clear
4:53 PM 93.0 °F 93.0 °F 61.0 °F 34% 29.73 in 9.0 mi NW 10.4 mph - N/A   Clear
5:53 PM 91.0 °F 93.8 °F 66.0 °F 44% 29.73 in 8.0 mi NNE 3.5 mph - N/A   Clear
6:53 PM 86.0 °F 90.7 °F 70.0 °F 59% 29.74 in 7.0 mi East 5.8 mph - N/A   Clear
7:53 PM 78.1 °F - 70.0 °F 76% 29.78 in 6.0 mi ESE 4.6 mph - N/A   Haze
8:53 PM 75.0 °F - 70.0 °F 84% 29.80 in 7.0 mi ESE 4.6 mph - N/A   Clear
9:53 PM 73.0 °F - 69.1 °F 87% 29.84 in 5.0 mi South 4.6 mph - N/A   Clear
10:53 PM 71.1 °F - 66.9 °F 87% 29.86 in 6.0 mi Calm Calm - N/A   Clear
11:53 PM 70.0 °F - 66.9 °F 90% 29.89 in 6.0 mi South 6.9 mph - N/A   Clear